Location: Unspecified
(17.6330°N, 0.0000°E)
Time: 17:58:47
(UTC+00:00)

Altair - Visible Passes

Search period start: 17 June 2019 00:00
Search period end: 27 June 2019 00:00
Orbit: 1501 x 1683 km, 47.2° (Epoch: 16 June)

Date Brightness Start Highest point End Pass type
(mag) Time Alt. Az. Time Alt. Az. Time Alt. Az.
17 Jun 10.1 01:17:13 10° N 01:20:04 11° NNE 01:22:55 10° NNE visible
17 Jun 9.1 03:19:04 10° NNW 03:28:03 35° NE 03:36:57 10° E visible
17 Jun 8.9 20:28:15 10° WSW 20:36:41 36° NW 20:45:26 10° NNE visible
17 Jun 10.1 22:41:33 10° NNW 22:44:26 11° NNW 22:47:20 10° N visible
18 Jun 10.1 00:52:34 10° N 00:54:31 11° NNE 00:56:27 10° NNE visible
18 Jun 9.2 02:54:00 10° NNW 03:02:43 32° NE 03:11:23 10° E visible
18 Jun 7.7 04:57:57 10° NW 05:08:05 73° SW 05:18:03 10° SSE visible
18 Jun 8.8 20:02:49 10° WSW 20:11:24 39° NW 20:20:20 10° NNE visible
18 Jun 10.0 22:15:24 10° NW 22:18:54 12° NNW 22:22:28 10° N visible
19 Jun 9.3 02:28:57 10° NNW 02:37:23 29° NE 02:45:46 10° E visible
19 Jun 7.6 04:32:42 10° NW 04:42:53 80° SW 04:52:56 10° SE visible
19 Jun 8.7 19:37:25 10° WSW 19:46:09 43° NW 19:55:14 10° NNE visible
19 Jun 10.0 21:49:20 10° NW 21:53:25 13° NNW 21:57:32 10° N visible
20 Jun 9.3 02:03:54 10° NNW 02:12:01 27° NE 02:20:07 10° E visible
20 Jun 7.6 04:07:29 10° NW 04:17:41 87° SW 04:27:47 10° SE visible
20 Jun 8.6 19:12:03 10° WSW 19:20:55 47° NW 19:30:08 10° NNE visible
20 Jun 10.0 21:23:21 10° NW 21:27:55 14° NNW 21:32:35 10° N visible
21 Jun 9.4 01:38:52 10° NNW 01:46:38 24° NNE 01:54:25 10° E visible
21 Jun 7.7 03:42:16 10° NW 03:52:30 85° NE 04:02:37 10° SE visible
21 Jun 8.5 18:46:43 10° WSW 18:55:42 52° NW 19:05:01 10° NNE visible
21 Jun 9.9 20:57:25 10° NW 21:02:27 15° NNW 21:07:36 10° N visible
22 Jun 9.5 01:13:51 10° NNW 01:21:15 22° NNE 01:28:39 10° E visible
22 Jun 7.7 03:17:05 10° NW 03:27:16 78° NE 03:37:24 10° SE visible
22 Jun 9.9 20:31:33 10° WNW 20:37:01 16° NNW 20:42:37 10° N visible
23 Jun 9.5 00:48:51 10° NNW 00:55:50 20° NNE 01:02:52 10° ENE visible
23 Jun 7.8 02:51:55 10° NW 03:02:03 71° NE 03:12:09 10° SE visible
23 Jun 8.3 04:58:22 10° WNW 05:06:27 27° SW 05:14:28 10° S visible
23 Jun 9.8 20:05:43 10° WNW 20:11:36 18° NNW 20:17:37 10° NNE visible
24 Jun 9.6 00:23:52 10° NNW 00:30:25 19° NNE 00:37:00 10° ENE visible
24 Jun 7.9 02:26:46 10° NW 02:36:49 65° NE 02:46:51 10° SE visible
24 Jun 8.2 04:32:48 10° WNW 04:41:17 31° SW 04:49:44 10° S visible
24 Jun 9.8 19:39:57 10° WNW 19:46:12 19° NNW 19:52:37 10° NNE visible
24 Jun 9.6 23:58:54 10° NNW 00:04:58 17° NNE 00:11:05 10° ENE visible
25 Jun 8.0 02:01:39 10° NW 02:11:35 59° NE 02:21:31 10° ESE visible
25 Jun 8.0 04:07:17 10° WNW 04:16:08 35° SW 04:24:57 10° S visible
25 Jun 9.7 19:14:13 10° WNW 19:20:49 21° NNW 19:27:36 10° NNE visible
25 Jun 9.7 23:33:57 10° N 23:39:31 16° NNE 23:45:07 10° ENE visible
26 Jun 8.1 01:36:32 10° NNW 01:46:20 54° NE 01:56:10 10° ESE visible
26 Jun 7.9 03:41:50 10° WNW 03:50:58 39° SW 04:00:05 10° SSE visible
26 Jun 9.7 18:48:32 10° W 18:55:27 23° NNW 19:02:35 10° NNE visible
26 Jun 9.7 23:09:02 10° N 23:14:03 15° NNE 23:19:05 10° NE visible
